Printer-friendly version

IAU Minor Planet Center

Minor Planet Center

MPEC 2004-G33 : 2004 FC32

The following Minor Planet Electronic Circular may be linked-to from your own Web pages, but must not otherwise be redistributed electronically.


Read MPEC 2004-G32 Read MPEC 2004-G34


M.P.E.C. 2004-G33                                Issued 2004 Apr. 14, 12:37 UT

     The Minor Planet Electronic Circulars contain information on unusual
         minor planets and routine data on comets.  They are published
   on behalf of Commission 20 of the International Astronomical Union by the
          Minor Planet Center, Smithsonian Astrophysical Observatory,
                          Cambridge, MA 02138, U.S.A.

         Supported in part by the Steven and Michele Kirsch Foundation
             Prepared using the Tamkin Foundation Computer Network

                              MPC@CFA.HARVARD.EDU
          URL http://cfa-www.harvard.edu/iau/mpc.html  ISSN 1523-6714

                                   2004 FC32

Additional Observations:
     K04F32C  C2004 03 18.36240 13 34 09.54 +21 12 36.4          19.1 V EG033703
     K04F32C  C2004 03 18.37398 13 34 09.26 +21 12 46.4          19.2 V EG033703
     K04F32C  C2004 03 18.38553 13 34 09.10 +21 12 54.0          19.9 V EG033703
     K04F32C  C2004 03 18.39704 13 34 08.84 +21 13 03.8          18.8 V EG033703
     K04F32C  C2004 04 08.23097 13 20 10.84 +24 35 05.6          18.8   EG033644
     K04F32C  C2004 04 08.25198 13 20 09.46 +24 35 11.6          18.8   EG033644
     K04F32C  C2004 04 08.27392 13 20 08.00 +24 35 17.9          18.8   EG033644
     K04F32C  C2004 04 14.33851 13 13 47.89 +24 48 30.8          18.1 R EG033703
     K04F32C  C2004 04 14.35012 13 13 47.04 +24 48 30.7          18.1 R EG033703
     K04F32C  C2004 04 14.36166 13 13 46.23 +24 48 30.6          18.6 R EG033703
     K04F32C  C2004 04 14.37319 13 13 45.43 +24 48 30.5          18.2 R EG033703

Observer details:
644 Palomar Mountain/NEAT.  Observers S. Pravdo, D. MacDonald, K. Lawrence,
    M. Hicks.  1.2-m Schmidt + CCD.
703 Catalina Sky Survey.  Observers S. Larson, E. Beshore, E. Christensen,
    R. Hill, S. Kolar, D. McLean.  0.68-m f/1.8 Schmidt + CCD.

Orbital elements:
2004 FC32
Epoch 2004 July 14.0 TT = JDT 2453200.5                 MPC
M   6.10906              (2000.0)            P               Q
n   0.36986378     Peri.  172.65923     -0.28047188     +0.94140226
a   1.9220950      Node    80.91557     -0.89001799     -0.18197216
e   0.3392966      Incl.   10.93659     -0.35944888     -0.28398576
P   2.66           H   18.4           G   0.15           U   5
Residuals in seconds of arc
040318 703  0.1-  0.2-    040330 704  0.2-  0.3+    040408 644  0.1-  0.1+
040318 703  0.6-  0.8+    040330 704  0.0   0.2-    040408 644  0.1-  0.1+
040318 703  0.5+  0.7-    040331 704  0.5+  0.6+    040408 644  0.2-  0.2+
040318 703  0.2+  0.1+    040331 704  0.4-  0.1+    040414 703  0.2+  0.3-
040330 704  0.1+  0.2+    040331 704  0.3-  0.3-    040414 703  0.2-  0.2-
040330 704  0.1+  0.1+    040331 704  0.6+  0.8-    040414 703  0.0   0.0
040330 704  0.5-  0.4-    040331 704  0.2+  0.1+    040414 703  0.2+  0.3+

Ephemeris:
2004 FC32                a,e,i = 1.92, 0.34, 11                  q = 1.2699
Date    TT    R. A. (2000) Decl.     Delta      r     Elong.  Phase     V
2004 04 15    13 13.09   +24 48.3    0.475    1.419   145.0    23.9    18.7
2004 04 25    13 02.72   +23 58.9    0.457    1.385   139.2    28.3    18.7
2004 05 05    12 54.84   +21 43.1    0.448    1.353   132.8    33.2    18.7
2004 05 15    12 51.27   +18 08.9    0.447    1.326   126.5    37.8    18.8
2004 05 25    12 52.89   +13 30.4    0.452    1.304   120.9    41.8    18.9
2004 06 04    12 59.81   +08 04.9    0.462    1.287   116.1    45.1    19.0
2004 06 14    13 11.58   +02 09.8    0.478    1.276   112.2    47.5    19.1
2004 06 24    13 27.80   -03 58.9    0.500    1.270   108.9    49.2    19.3
2004 07 04    13 48.07   -10 05.6    0.528    1.271   106.4    50.1    19.4
2004 07 14    14 12.00   -15 54.9    0.564    1.278   104.3    50.4    19.6
2004 07 24    14 39.38   -21 14.1    0.606    1.291   102.6    50.1    19.7
2004 08 03    15 09.87   -25 52.4    0.657    1.310   101.1    49.5    19.9
2004 08 13    15 42.98   -29 41.8    0.715    1.334    99.6    48.5    20.1
2004 08 23    16 18.17   -32 38.0    0.782    1.362    98.1    47.3    20.3
2004 09 02    16 54.63   -34 39.9    0.858    1.395    96.4    46.0    20.5
2004 09 12    17 31.46   -35 49.3    0.941    1.430    94.5    44.5    20.8
2004 09 22    18 07.86   -36 11.0    1.033    1.469    92.3    43.1    21.0
2004 10 02    18 43.13   -35 51.0    1.132    1.509    89.9    41.5    21.2
2004 10 12    19 16.76   -34 56.2    1.239    1.552    87.2    40.0    21.4
2004 10 22    19 48.57   -33 33.3    1.352    1.595    84.2    38.4    21.6
2004 11 01    20 18.47   -31 48.6    1.471    1.639    80.9    36.7    21.8
2004 11 11    20 46.53   -29 47.4    1.595    1.684    77.4    35.0    22.0

Timothy B. Spahr             (C) Copyright 2004 MPC           M.P.E.C. 2004-G33

Read MPEC 2004-G32 Read MPEC 2004-G34


Our Web policy. Index to the CBAT/MPC/ICQ pages.


Valid HTML 4.01!